RYR59VA GMTT-LEMG

Flight info

Callsign RYR59VA
Flight time 0h 41m
Altitude 24000
Route NOLRO DCT ADKIM Z53 VJF
Aircraft B738/M-SDE2E3FGHIRWXY/LB1

Departure

Time 2026-04-23 08:04
Airport Tangier Ibn Battuta Airport (GMTT)

Arrival

Time 2026-04-23 08:45
Airport Málaga-Costa del Sol Airport (LEMG)
Time Latitude Longitude Altitude Speed Heading
2026-04-23 07:54 35.72527 -5.91450 62 ft 0 kts 356°
2026-04-23 07:55 35.72521 -5.91449 56 ft 4 kts 357°
2026-04-23 07:55 35.72494 -5.91449 56 ft 4 kts 358°
2026-04-23 07:55 35.72469 -5.91445 56 ft 2 kts 339°
2026-04-23 07:56 35.72447 -5.91435 56 ft 4 kts 341°
2026-04-23 07:56 35.72426 -5.91425 57 ft 1 kts 332°
2026-04-23 07:56 35.72422 -5.91422 56 ft 0 kts 332°
2026-04-23 07:59 35.72431 -5.91436 58 ft 3 kts 288°
2026-04-23 07:59 35.72430 -5.91500 62 ft 12 kts 266°
2026-04-23 07:59 35.72448 -5.91630 56 ft 20 kts 304°
2026-04-23 08:00 35.72588 -5.91694 59 ft 25 kts 354°
2026-04-23 08:00 35.72774 -5.91711 59 ft 27 kts 356°
2026-04-23 08:00 35.72931 -5.91697 53 ft 19 kts 50°
2026-04-23 08:00 35.72932 -5.91544 60 ft 18 kts 97°
2026-04-23 08:01 35.72917 -5.91393 63 ft 17 kts 97°
2026-04-23 08:01 35.72901 -5.91238 64 ft 20 kts 97°
2026-04-23 08:01 35.72883 -5.91045 63 ft 25 kts 97°
2026-04-23 08:01 35.72861 -5.90821 69 ft 27 kts 97°
2026-04-23 08:02 35.72840 -5.90602 67 ft 25 kts 96°
2026-04-23 08:02 35.72824 -5.90397 71 ft 23 kts 95°
2026-04-23 08:02 35.72834 -5.90238 71 ft 8 kts 56°
2026-04-23 08:02 35.72882 -5.90199 71 ft 8 kts 18°
2026-04-23 08:03 35.72937 -5.90201 71 ft 8 kts 330°
2026-04-23 08:03 35.72983 -5.90242 71 ft 8 kts 316°
2026-04-23 08:03 35.72991 -5.90270 69 ft 0 kts 276°
2026-04-23 08:03 35.72992 -5.90277 71 ft 2 kts 276°
2026-04-23 08:04 35.73018 -5.90534 67 ft 70 kts 276°
2026-04-23 08:04 35.73105 -5.91459 55 ft 144 kts 280°
2026-04-23 08:04 35.73202 -5.92864 430 ft 167 kts 272°
2026-04-23 08:04 35.73269 -5.94217 1530 ft 152 kts 275°
2026-04-23 08:05 35.73682 -5.95443 2147 ft 168 kts 310°
2026-04-23 08:05 35.74461 -5.96719 2462 ft 204 kts 306°
2026-04-23 08:05 35.75309 -5.98269 2706 ft 232 kts 304°
2026-04-23 08:05 35.76229 -6.00008 3003 ft 255 kts 303°
2026-04-23 08:06 35.77266 -6.01862 3442 ft 270 kts 314°
2026-04-23 08:06 35.78837 -6.03090 4325 ft 268 kts 344°
2026-04-23 08:06 35.80672 -6.03295 5331 ft 269 kts
2026-04-23 08:06 35.82569 -6.03033 6065 ft 279 kts
2026-04-23 08:07 35.84516 -6.02708 6854 ft 286 kts
2026-04-23 08:07 35.86507 -6.02420 7649 ft 291 kts
2026-04-23 08:07 35.88544 -6.02145 8438 ft 298 kts
2026-04-23 08:07 35.90623 -6.01873 9234 ft 304 kts
2026-04-23 08:08 35.92749 -6.01598 10016 ft 310 kts
2026-04-23 08:08 35.94941 -6.01316 10507 ft 328 kts
2026-04-23 08:08 35.97297 -6.01013 10793 ft 349 kts
2026-04-23 08:08 35.99746 -6.00699 11425 ft 358 kts
2026-04-23 08:09 36.02204 -6.00385 12194 ft 361 kts
2026-04-23 08:09 36.04743 -6.00060 13032 ft 366 kts
2026-04-23 08:09 36.07271 -5.99737 13814 ft 371 kts
2026-04-23 08:09 36.09862 -5.99405 14554 ft 376 kts
2026-04-23 08:10 36.12477 -5.99069 15356 ft 380 kts
2026-04-23 08:10 36.15120 -5.98730 16165 ft 383 kts
2026-04-23 08:10 36.20491 -5.98013 17689 ft 393 kts 10°
2026-04-23 08:11 36.23067 -5.96884 18401 ft 396 kts 32°
2026-04-23 08:11 36.25199 -5.94760 19115 ft 393 kts 52°
2026-04-23 08:11 36.26725 -5.92011 20013 ft 385 kts 62°
2026-04-23 08:11 36.28084 -5.89164 20913 ft 382 kts 63°
2026-04-23 08:12 36.29405 -5.86309 21742 ft 381 kts 63°
2026-04-23 08:12 36.30720 -5.83463 22555 ft 381 kts 63°
2026-04-23 08:12 36.32043 -5.80623 23410 ft 379 kts 63°
2026-04-23 08:12 36.33375 -5.77785 23833 ft 381 kts 63°
2026-04-23 08:13 36.34711 -5.74957 24017 ft 380 kts 62°
2026-04-23 08:13 36.36053 -5.72126 24006 ft 381 kts 62°
2026-04-23 08:13 36.37394 -5.69302 24018 ft 379 kts 62°
2026-04-23 08:13 36.38729 -5.66489 24015 ft 378 kts 62°
2026-04-23 08:14 36.40060 -5.63683 24016 ft 377 kts 62°
2026-04-23 08:14 36.41389 -5.60878 24014 ft 374 kts 62°
2026-04-23 08:14 36.42698 -5.58116 24011 ft 369 kts 62°
2026-04-23 08:14 36.43989 -5.55387 24010 ft 365 kts 62°
2026-04-23 08:15 36.45274 -5.52666 24021 ft 365 kts 62°
2026-04-23 08:15 36.46561 -5.49940 23924 ft 367 kts 62°
2026-04-23 08:15 36.47850 -5.47207 23669 ft 365 kts 62°
2026-04-23 08:15 36.49131 -5.44491 23313 ft 364 kts 63°
2026-04-23 08:16 36.50055 -5.41623 22957 ft 353 kts 83°
2026-04-23 08:16 36.50160 -5.38639 22703 ft 342 kts 99°
2026-04-23 08:16 36.49837 -5.35729 22436 ft 339 kts 102°
2026-04-23 08:16 36.49449 -5.32854 22147 ft 336 kts 103°
2026-04-23 08:17 36.49050 -5.29998 21884 ft 336 kts 103°
2026-04-23 08:17 36.48654 -5.27131 21631 ft 338 kts 103°
2026-04-23 08:17 36.48261 -5.24235 21359 ft 341 kts 103°
2026-04-23 08:17 36.47877 -5.21337 21072 ft 339 kts 102°
2026-04-23 08:18 36.47499 -5.18457 20807 ft 338 kts 102°
2026-04-23 08:18 36.47125 -5.15586 20534 ft 336 kts 102°
2026-04-23 08:18 36.46752 -5.12722 20264 ft 335 kts 102°
2026-04-23 08:18 36.46381 -5.09871 20002 ft 334 kts 102°
2026-04-23 08:19 36.46136 -5.07988 19820 ft 333 kts 102°
2026-04-23 08:19 36.45642 -5.04198 19473 ft 332 kts 102°
2026-04-23 08:19 36.45277 -5.01411 19212 ft 331 kts 102°
2026-04-23 08:19 36.44909 -4.98600 18946 ft 329 kts 103°
2026-04-23 08:20 36.44542 -4.95798 18682 ft 328 kts 102°
2026-04-23 08:20 36.44176 -4.93009 18427 ft 327 kts 103°
2026-04-23 08:20 36.43809 -4.90222 18142 ft 326 kts 103°
2026-04-23 08:20 36.43562 -4.88347 17950 ft 325 kts 103°
2026-04-23 08:21 36.43197 -4.85581 17672 ft 324 kts 103°
2026-04-23 08:21 36.42832 -4.82829 17400 ft 323 kts 103°
2026-04-23 08:21 36.42686 -4.80051 17128 ft 327 kts 85°
2026-04-23 08:21 36.43411 -4.77376 16872 ft 331 kts 62°
2026-04-23 08:22 36.44899 -4.75196 16621 ft 333 kts 44°
2026-04-23 08:22 36.46629 -4.73287 16355 ft 333 kts 43°
2026-04-23 08:22 36.48367 -4.71392 16082 ft 333 kts 43°
2026-04-23 08:22 36.50095 -4.69480 15823 ft 333 kts 43°
2026-04-23 08:23 36.51975 -4.67804 15524 ft 335 kts 25°
2026-04-23 08:23 36.54214 -4.67062 15268 ft 334 kts
2026-04-23 08:23 36.56528 -4.67003 15026 ft 333 kts 359°
2026-04-23 08:23 36.58845 -4.67009 14751 ft 332 kts 359°
2026-04-23 08:24 36.61112 -4.67001 14494 ft 329 kts 358°
2026-04-23 08:24 36.63341 -4.67413 14201 ft 321 kts 338°
2026-04-23 08:24 36.65248 -4.68740 13963 ft 311 kts 317°
2026-04-23 08:24 36.66859 -4.70501 13722 ft 307 kts 314°
2026-04-23 08:25 36.68423 -4.72310 13447 ft 307 kts 313°
2026-04-23 08:25 36.69984 -4.74126 13191 ft 307 kts 314°
2026-04-23 08:25 36.71547 -4.75932 12939 ft 307 kts 314°
2026-04-23 08:25 36.73118 -4.77736 12685 ft 307 kts 314°
2026-04-23 08:26 36.74689 -4.79528 12435 ft 305 kts 314°
2026-04-23 08:26 36.76250 -4.81303 12181 ft 301 kts 314°
2026-04-23 08:26 36.77789 -4.83053 11931 ft 298 kts 314°
2026-04-23 08:26 36.79315 -4.84787 11700 ft 297 kts 315°
2026-04-23 08:27 36.81054 -4.86183 11436 ft 301 kts 338°
2026-04-23 08:27 36.83047 -4.86922 11225 ft 298 kts 343°
2026-04-23 08:27 36.85045 -4.87579 10966 ft 295 kts 343°
2026-04-23 08:27 36.87016 -4.88233 10743 ft 292 kts 343°
2026-04-23 08:28 36.88969 -4.88896 10492 ft 290 kts 343°
2026-04-23 08:28 36.90906 -4.89564 10269 ft 288 kts 343°
2026-04-23 08:28 36.92831 -4.90223 10042 ft 286 kts 346°
2026-04-23 08:28 36.94787 -4.90495 9915 ft 280 kts 359°
2026-04-23 08:29 36.96729 -4.90490 9793 ft 278 kts
2026-04-23 08:29 36.98642 -4.90467 9666 ft 272 kts
2026-04-23 08:29 37.00513 -4.90456 9542 ft 266 kts
2026-04-23 08:29 37.02341 -4.90462 9440 ft 261 kts 360°
2026-04-23 08:30 37.04151 -4.90477 9337 ft 259 kts 360°
2026-04-23 08:30 37.05957 -4.90498 9235 ft 260 kts 360°
2026-04-23 08:30 37.07775 -4.90519 9154 ft 263 kts 360°
2026-04-23 08:30 37.09612 -4.90542 9044 ft 265 kts 359°
2026-04-23 08:31 37.11461 -4.90565 8937 ft 266 kts 360°
2026-04-23 08:31 37.13311 -4.90588 8825 ft 266 kts 360°
2026-04-23 08:31 37.15165 -4.90612 8716 ft 267 kts 360°
2026-04-23 08:31 37.17018 -4.90497 8593 ft 267 kts 16°
2026-04-23 08:32 37.18597 -4.89457 8485 ft 249 kts 48°
2026-04-23 08:32 37.19524 -4.87768 8420 ft 227 kts 72°
2026-04-23 08:32 37.19890 -4.85893 8047 ft 218 kts 90°
2026-04-23 08:32 37.19944 -4.83986 7510 ft 219 kts 95°
2026-04-23 08:33 37.19642 -4.82164 6976 ft 211 kts 122°
2026-04-23 08:33 37.18683 -4.80844 6549 ft 203 kts 148°
2026-04-23 08:33 37.17381 -4.80238 6070 ft 201 kts 171°
2026-04-23 08:33 37.15980 -4.80150 5600 ft 202 kts 177°
2026-04-23 08:34 37.14581 -4.80142 5110 ft 201 kts 177°
2026-04-23 08:34 37.13185 -4.80141 4637 ft 200 kts 177°
2026-04-23 08:34 37.11792 -4.80138 4195 ft 200 kts 178°
2026-04-23 08:34 37.10394 -4.80126 3848 ft 199 kts 178°
2026-04-23 08:35 37.09065 -4.80115 3833 ft 183 kts 178°
2026-04-23 08:35 37.07876 -4.80107 3880 ft 181 kts 178°
2026-04-23 08:35 37.06558 -4.80088 4124 ft 195 kts 177°
2026-04-23 08:35 37.05178 -4.80073 4360 ft 200 kts 177°
2026-04-23 08:36 37.03778 -4.80057 4618 ft 203 kts 177°
2026-04-23 08:36 37.02447 -4.80048 4837 ft 200 kts 176°
2026-04-23 08:36 37.01057 -4.80033 5035 ft 200 kts 176°
2026-04-23 08:36 36.99663 -4.80016 5258 ft 201 kts 176°
2026-04-23 08:37 36.98263 -4.79999 5470 ft 201 kts 176°
2026-04-23 08:37 36.96864 -4.79982 5695 ft 201 kts 177°
2026-04-23 08:37 36.95462 -4.79968 5911 ft 201 kts 176°
2026-04-23 08:37 36.94058 -4.79954 5997 ft 202 kts 176°
2026-04-23 08:38 36.92656 -4.79776 5905 ft 205 kts 162°
2026-04-23 08:38 36.91312 -4.79210 5774 ft 204 kts 159°
2026-04-23 08:38 36.89972 -4.78598 5553 ft 204 kts 158°
2026-04-23 08:38 36.88663 -4.78007 5414 ft 203 kts 159°
2026-04-23 08:39 36.87335 -4.77419 5213 ft 200 kts 158°
2026-04-23 08:39 36.86073 -4.76685 5057 ft 203 kts 149°
2026-04-23 08:39 36.84811 -4.75813 4991 ft 210 kts 149°
2026-04-23 08:39 36.83522 -4.74937 4713 ft 209 kts 149°
2026-04-23 08:40 36.82273 -4.74087 4463 ft 199 kts 149°
2026-04-23 08:40 36.81085 -4.73284 4225 ft 189 kts 150°
2026-04-23 08:40 36.79949 -4.72519 3988 ft 183 kts 150°
2026-04-23 08:40 36.78847 -4.71776 3798 ft 177 kts 150°
2026-04-23 08:41 36.77851 -4.70904 3552 ft 175 kts 127°
2026-04-23 08:41 36.77195 -4.69609 3383 ft 183 kts 124°
2026-04-23 08:41 36.76495 -4.68252 3146 ft 187 kts 122°
2026-04-23 08:41 36.75857 -4.66843 2877 ft 184 kts 120°
2026-04-23 08:42 36.75267 -4.65458 2634 ft 178 kts 119°
2026-04-23 08:42 36.74696 -4.64099 2414 ft 177 kts 119°
2026-04-23 08:42 36.74127 -4.62750 2175 ft 174 kts 118°
2026-04-23 08:42 36.73569 -4.61419 1944 ft 172 kts 118°
2026-04-23 08:43 36.73021 -4.60116 1710 ft 164 kts 118°
2026-04-23 08:43 36.72511 -4.58897 1497 ft 155 kts 118°
2026-04-23 08:43 36.72006 -4.57699 1311 ft 158 kts 117°
2026-04-23 08:43 36.71504 -4.56502 1112 ft 150 kts 118°
2026-04-23 08:44 36.71036 -4.55383 918 ft 142 kts 116°
2026-04-23 08:44 36.70600 -4.54306 735 ft 137 kts 116°
2026-04-23 08:44 36.70156 -4.53258 537 ft 138 kts 118°
2026-04-23 08:44 36.69706 -4.52219 369 ft 136 kts 116°
2026-04-23 08:45 36.69274 -4.51173 171 ft 134 kts 118°
2026-04-23 08:45 36.68847 -4.50170 50 ft 124 kts 116°
2026-04-23 08:45 36.68538 -4.49436 46 ft 66 kts 117°
2026-04-23 08:45 36.68361 -4.49032 44 ft 42 kts 129°
2026-04-23 08:46 36.68179 -4.48859 38 ft 21 kts 158°
2026-04-23 08:46 36.68146 -4.48938 39 ft 13 kts 292°
2026-04-23 08:46 36.68184 -4.49036 36 ft 12 kts 296°
2026-04-23 08:46 36.68222 -4.49130 39 ft 10 kts 300°
2026-04-23 08:47 36.68255 -4.49201 39 ft 9 kts 300°
2026-04-23 08:47 36.68282 -4.49273 40 ft 9 kts 278°
2026-04-23 08:47 36.68255 -4.49342 39 ft 9 kts 232°
2026-04-23 08:47 36.68210 -4.49400 40 ft 9 kts 219°
2026-04-23 08:48 36.68162 -4.49449 41 ft 9 kts 219°
2026-04-23 08:48 36.68117 -4.49501 41 ft 9 kts 222°
2026-04-23 08:48 36.68072 -4.49549 41 ft 8 kts 221°
2026-04-23 08:48 36.68022 -4.49603 41 ft 11 kts 221°
2026-04-23 08:49 36.67953 -4.49678 41 ft 15 kts 221°
2026-04-23 08:49 36.67864 -4.49782 41 ft 19 kts 221°
2026-04-23 08:49 36.67761 -4.49870 41 ft 19 kts 203°
2026-04-23 08:49 36.67663 -4.49854 42 ft 16 kts 134°
2026-04-23 08:50 36.67581 -4.49741 42 ft 19 kts 132°
2026-04-23 08:50 36.67485 -4.49609 42 ft 22 kts 131°
2026-04-23 08:50 36.67409 -4.49499 42 ft 14 kts 130°
2026-04-23 08:50 36.67339 -4.49398 42 ft 14 kts 127°
2026-04-23 08:51 36.67287 -4.49308 41 ft 12 kts 127°
2026-04-23 08:51 36.67301 -4.49229 41 ft 8 kts 70°
2026-04-23 08:51 36.67302 -4.49174 41 ft 5 kts 91°
2026-04-23 08:51 36.67303 -4.49141 41 ft 0 kts 90°